When you browse on this site, cookies collect data to enhance your experience and personalize the content and advertising you see.
Visit our Privacy Policy to learn more. By continuing to use the site, you agree to this use of cookies and data.
EN

Hourly Weather Lahaur

Today, 4 July, Saturday

Time Temperature Precipitation Wind Pressure Humidity
00:00 +42°C° 0 mm 3 mps 728 mmHg 15%
01:00 +40°C° 0 mm 3 mps 728 mmHg 16%
02:00 +41°C° 0 mm 4 mps 728 mmHg 17%
03:00 +40°C° 0 mm 4 mps 728 mmHg 20%
04:00 +38°C° 0 mm 4 mps 728 mmHg 23%
05:00 +37°C° 0 mm 2 mps 728 mmHg 20%
06:00 +38°C° 0 mm 3 mps 729 mmHg 21%
07:00 +40°C° 0 mm 4 mps 729 mmHg 23%
08:00 +41°C° 0 mm 5 mps 729 mmHg 25%
09:00 +43°C° 0 mm 4 mps 729 mmHg 22%
10:00 +46°C° 0 mm 3 mps 729 mmHg 19%
11:00 +47°C° 0 mm 4 mps 730 mmHg 21%
12:00 +48°C° 0 mm 3 mps 729 mmHg 18%
13:00 +49°C° 0 mm 2 mps 728 mmHg 15%
14:00 +50°C° 0 mm 2 mps 728 mmHg 12%
15:00 +50°C° 0 mm 2 mps 727 mmHg 11%
16:00 +50°C° 0 mm 2 mps 726 mmHg 10%
17:00 +49°C° 0 mm 2 mps 726 mmHg 12%
18:00 +48°C° 0 mm 2 mps 726 mmHg 13%
19:00 +46°C° 0 mm 2 mps 726 mmHg 13%
20:00 +45°C° 0 mm 2 mps 726 mmHg 14%
21:00 +44°C° 0 mm 3 mps 727 mmHg 16%
22:00 +45°C° 0 mm 5 mps 727 mmHg 18%
23:00 +44°C° 0 mm 6 mps 727 mmHg 19%

Tomorrow, 5 July, Sunday

Time Temperature Precipitation Wind Pressure Humidity
00:00 +42°C° 0.8 mm 6 mps 727 mmHg 24%
01:00 +40°C° 0.8 mm 6 mps 727 mmHg 28%
02:00 +39°C° 0.8 mm 6 mps 727 mmHg 32%
03:00 +38°C° 0.7 mm 6 mps 728 mmHg 37%
04:00 +36°C° 0.7 mm 7 mps 728 mmHg 41%
05:00 +36°C° 0.7 mm 7 mps 728 mmHg 45%
06:00 +36°C° 1.2 mm 7 mps 729 mmHg 45%
07:00 +37°C° 1.2 mm 8 mps 729 mmHg 44%
08:00 +37°C° 1.2 mm 8 mps 730 mmHg 44%
09:00 +38°C° 0.2 mm 8 mps 730 mmHg 44%
10:00 +38°C° 0.2 mm 8 mps 730 mmHg 45%
11:00 +38°C° 0.2 mm 7 mps 730 mmHg 45%
12:00 +39°C° 0.5 mm 7 mps 730 mmHg 42%
13:00 +40°C° 0.5 mm 7 mps 729 mmHg 39%
14:00 +40°C° 0.5 mm 6 mps 728 mmHg 35%
15:00 +41°C° 0 mm 5 mps 728 mmHg 33%
16:00 +42°C° 0 mm 4 mps 727 mmHg 31%
17:00 +42°C° 0 mm 3 mps 727 mmHg 29%
18:00 +41°C° 0 mm 2 mps 727 mmHg 30%
19:00 +40°C° 0 mm 2 mps 727 mmHg 32%
20:00 +39°C° 0 mm 1 mps 727 mmHg 34%
21:00 +37°C° 0 mm 1 mps 727 mmHg 35%
22:00 +37°C° 0 mm 1 mps 728 mmHg 36%
23:00 +34°C° 0 mm 0 mps 728 mmHg 37%

Day after tomorrow, 6 July, Monday

Time Temperature Precipitation Wind Pressure Humidity
00:00 +36°C° 0.3 mm 1 mps 728 mmHg 38%
01:00 +36°C° 0.3 mm 2 mps 728 mmHg 40%
02:00 +35°C° 0.3 mm 2 mps 728 mmHg 42%
03:00 +35°C° 0.3 mm 2 mps 728 mmHg 44%
04:00 +33°C° 0.3 mm 1 mps 728 mmHg 45%
05:00 +33°C° 0.3 mm 1 mps 728 mmHg 46%
06:00 +34°C° 0 mm 1 mps 729 mmHg 43%
07:00 +36°C° 0 mm 1 mps 729 mmHg 40%
08:00 +37°C° 0 mm 1 mps 729 mmHg 37%
09:00 +39°C° 0 mm 1 mps 729 mmHg 34%
10:00 +41°C° 0 mm 1 mps 729 mmHg 31%
11:00 +42°C° 0 mm 2 mps 729 mmHg 27%
12:00 +43°C° 0 mm 2 mps 729 mmHg 26%
13:00 +44°C° 0 mm 1 mps 728 mmHg 24%
14:00 +45°C° 0 mm 1 mps 728 mmHg 22%
15:00 +45°C° 0 mm 1 mps 728 mmHg 21%
16:00 +46°C° 0 mm 2 mps 727 mmHg 20%
17:00 +46°C° 0 mm 2 mps 727 mmHg 20%
18:00 +44°C° 0 mm 1 mps 727 mmHg 21%
19:00 +43°C° 0 mm 1 mps 727 mmHg 22%
20:00 +42°C° 0 mm 1 mps 727 mmHg 23%
21:00 +42°C° 0 mm 1 mps 728 mmHg 23%
22:00 +41°C° 0 mm 1 mps 728 mmHg 24%
23:00 +41°C° 0 mm 1 mps 728 mmHg 25%

7 July, Tuesday

Time Temperature Precipitation Wind Pressure Humidity
00:00 +40°C° 0 mm 1 mps 728 mmHg 27%
01:00 +40°C° 0 mm 2 mps 728 mmHg 29%
02:00 +39°C° 0 mm 2 mps 728 mmHg 30%
03:00 +39°C° 0 mm 2 mps 728 mmHg 32%
04:00 +38°C° 0 mm 2 mps 728 mmHg 33%
05:00 +37°C° 0 mm 2 mps 728 mmHg 35%
06:00 +39°C° 0 mm 2 mps 729 mmHg 33%
07:00 +40°C° 0 mm 3 mps 729 mmHg 32%
08:00 +42°C° 0 mm 3 mps 730 mmHg 30%
09:00 +44°C° 0 mm 3 mps 730 mmHg 27%
10:00 +45°C° 0 mm 3 mps 730 mmHg 24%
11:00 +47°C° 0 mm 2 mps 730 mmHg 21%
12:00 +47°C° 0 mm 2 mps 730 mmHg 20%
13:00 +47°C° 0 mm 2 mps 729 mmHg 19%
14:00 +48°C° 0 mm 2 mps 729 mmHg 18%
15:00 +47°C° 0 mm 2 mps 729 mmHg 19%
16:00 +47°C° 0 mm 2 mps 728 mmHg 19%
17:00 +47°C° 0 mm 2 mps 728 mmHg 20%
18:00 +46°C° 0 mm 2 mps 728 mmHg 21%
19:00 +45°C° 0 mm 2 mps 728 mmHg 22%
20:00 +43°C° 0 mm 2 mps 729 mmHg 23%
21:00 +43°C° 0 mm 2 mps 729 mmHg 26%
22:00 +43°C° 0 mm 3 mps 729 mmHg 29%
23:00 +42°C° 0 mm 4 mps 730 mmHg 31%

8 July, Wednesday

Time Temperature Precipitation Wind Pressure Humidity
00:00 +42°C° 0 mm 4 mps 729 mmHg 33%
01:00 +41°C° 0 mm 4 mps 729 mmHg 35%
02:00 +40°C° 0 mm 4 mps 729 mmHg 37%
03:00 +40°C° 0 mm 4 mps 729 mmHg 39%
04:00 +39°C° 0 mm 5 mps 729 mmHg 41%
05:00 +39°C° 0 mm 5 mps 729 mmHg 43%
06:00 +39°C° 0 mm 5 mps 730 mmHg 44%
07:00 +40°C° 0 mm 6 mps 730 mmHg 44%
08:00 +40°C° 0 mm 6 mps 731 mmHg 45%
09:00 +42°C° 0 mm 6 mps 731 mmHg 40%
10:00 +45°C° 0 mm 6 mps 731 mmHg 35%
11:00 +47°C° 0 mm 5 mps 731 mmHg 29%
12:00 +48°C° 0 mm 5 mps 730 mmHg 27%
13:00 +48°C° 0 mm 4 mps 730 mmHg 24%
14:00 +48°C° 0 mm 3 mps 729 mmHg 21%
15:00 +48°C° 0.1 mm 4 mps 729 mmHg 24%
16:00 +46°C° 0.1 mm 5 mps 728 mmHg 27%
17:00 +45°C° 0.1 mm 5 mps 728 mmHg 30%
18:00 +43°C° 0 mm 5 mps 728 mmHg 33%
19:00 +42°C° 0 mm 5 mps 729 mmHg 36%
20:00 +41°C° 0 mm 5 mps 729 mmHg 39%
21:00 +40°C° 0 mm 6 mps 729 mmHg 41%
22:00 +39°C° 0 mm 6 mps 729 mmHg 43%
23:00 +39°C° 0 mm 6 mps 729 mmHg 46%

9 July, Thursday

Time Temperature Precipitation Wind Pressure Humidity
00:00 +37°C° 0.4 mm 5 mps 729 mmHg 48%
01:00 +36°C° 0.4 mm 4 mps 729 mmHg 51%
02:00 +35°C° 0.4 mm 4 mps 729 mmHg 53%
03:00 +35°C° 0.4 mm 4 mps 729 mmHg 55%
04:00 +35°C° 0.4 mm 4 mps 729 mmHg 58%
05:00 +34°C° 0.4 mm 4 mps 728 mmHg 60%
06:00 +35°C° 0 mm 4 mps 729 mmHg 56%
07:00 +36°C° 0 mm 4 mps 729 mmHg 53%
08:00 +38°C° 0 mm 4 mps 729 mmHg 49%
09:00 +39°C° 0 mm 3 mps 729 mmHg 44%
10:00 +42°C° 0 mm 3 mps 729 mmHg 39%
11:00 +44°C° 0 mm 3 mps 729 mmHg 33%
12:00 +45°C° 0 mm 2 mps 728 mmHg 30%
13:00 +46°C° 0 mm 2 mps 728 mmHg 27%
14:00 +47°C° 0 mm 1 mps 727 mmHg 24%
15:00 +46°C° 0 mm 1 mps 727 mmHg 23%
16:00 +46°C° 0 mm 1 mps 726 mmHg 23%
17:00 +46°C° 0 mm 1 mps 726 mmHg 23%
18:00 +46°C° 0.1 mm 2 mps 726 mmHg 25%
19:00 +45°C° 0.1 mm 2 mps 726 mmHg 28%
20:00 +42°C° 0.1 mm 2 mps 725 mmHg 30%
21:00 +43°C° 0 mm 3 mps 726 mmHg 33%
22:00 +42°C° 0 mm 4 mps 726 mmHg 35%
23:00 +41°C° 0 mm 4 mps 727 mmHg 37%
Show more